Location: Doux
(49.5045°N, 4.4321°E)
Time: 12:37:05
(UTC+00:00)

SL-4 R/B - Pass Details

Date: 23 May 2024
Orbit: 412 x 601 km, 51.6° (Epoch: 16 June)

Event Time Altitude Azimuth Distance (km) Brightness Sun altitude
Exits shadow 02:45:51 - 201° (SSW) 1,946 4.2 -8.5°
Reaches altitude 10° 02:46:03 10° 200° (SSW) 1,884 4.2 -8.5°
Maximum altitude 02:49:46 28° 141° (SE) 1,110 3.5 -8.1°
Drops below altitude 10° 02:53:36 10° 82° (E) 1,946 5.7 -7.7°
Sets 02:56:08 0° 71° (ENE) 2,860 7.0 -7.4°
